Hourly Data Report for January 17, 2013

YELLOWKNIFE A
NORTHWEST TERRITORIES

62°27'47.000" N
114°26'25.000" W
205.70 m
2204101
71936
YZF

Download Data

Hourly Data (January 2013)
Hourly Data Report for January 17, 2013
TIME
LST
Temp Definition
°C
Dew Point Definition
°C
Rel Hum Definition
%
Precip. Amount Definition
mm

Wind Dir Definition
10's deg

Wind Spd Definition
km/h
Visibility Definition
km
Stn Press Definition
kPa
Hmdx Definition


Wind Chill Definition


Weather Definition


00:00 -36.1 -39.9 69   8 7 24.1 100.09   -44 Ice Crystals
01:00 -36.7 -40.5 69   12 8 24.1 100.10   -46 Ice Crystals
02:00 -35.4 -39.2 69   9 7 24.1 100.07   -44 Ice Crystals
03:00 -35.9 -39.7 69   9 8 24.1 100.04   -45 Ice Crystals
04:00 -36.8 -40.6 69   8 7 24.1 100.00   -45 Ice Crystals
05:00 -36.5 -40.3 69   7 10 24.1 99.93   -47 Ice Crystals
06:00 -35.6 -39.4 69   7 8 24.1 99.90   -45 Ice Crystals
07:00 -34.5 -38.2 70   9 8 24.1 99.87   -43 Snow
08:00 -34.7 -38.4 70   9 7 24.1 99.78   -43 Snow
09:00 -34.7 -38.4 70   8 10 16.1 99.76   -45 Snow
10:00 -34.2 -37.9 70   10 10 16.1 99.76   -44 Snow
11:00 -34.7 -38.4 70   10 11 24.1 99.68   -45 Snow
12:00 -34.3 -38.0 70   10 11 24.1 99.62   -45 LegendNANA
13:00 -34.0 -37.7 70   7 12 24.1 99.55   -45 LegendNANA
14:00 -33.3 -36.9 71   6 10 24.1 99.48   -43 Mainly Clear
15:00 -33.2 -36.8 71   6 11 24.1 99.44   -44 LegendNANA
16:00 -33.0 -36.6 71   9 13 24.1 99.45   -44 LegendNANA
17:00 -32.8 -36.4 71   6 13 24.1 99.42   -44 Mostly Cloudy
18:00 -32.3 -35.9 71   7 17 24.1 99.35   -45 LegendNANA
19:00 -31.8 -35.3 72   7 14 24.1 99.36   -43 LegendNANA
20:00 -31.3 -34.8 72   6 14 24.1 99.37   -43 Cloudy
21:00 -30.8 -34.3 72   8 15 24.1 99.36   -42 LegendNANA
22:00 -30.3 -33.7 73   7 12 24.1 99.32   -41 LegendNANA
23:00 -29.6 -33.0 73   7 12 24.1 99.28   -40 Cloudy

Notes on Data Quality.

Legend

  • E = Estimated
  • M = Missing
  • NA = Not Available*
  • [empty] = Indicates an unobserved value
Date modified: